Résultats de la compétition "Nationale Longue Distance NE Dijon 28/03/2010" du 28-03-2010 organisée par le club 2109
     
  Télécharger le fichier CSV.  
     
     

 Circuit "H"

Licence Nom Prénom Temps CN
précédent
Score sur
la course
Différence
2687PERDRIZETDenis0:32:45N/A4794N/A
2275VALETTELaurent0:35:4937954383+588
1448KENANEAbdelkader0:36:2146834319-364
2401DEVILLENelly0:38:1144024111-291
2349HELIOTClaude0:40:1733483897+549
6491ROBERTFrancoise0:40:2242643889-375
1087ROBERTMartine0:41:0337323824+92
1276ANTOINERegis0:41:3343073778-529
20798TRONCHONValery0:42:5927663652+886
1752GRANSARTRenaud0:44:2137683540-228
13240ARNOULDBruno0:44:4731423506+364
2716HABERKORNDidier0:46:0140663412-654
2404HODSONMichael0:46:1629413393+452
116PIGERAlbert0:47:41N/A3292N/A
16403EUZENJ-Paul0:47:4530993288+189
7182BERGERM-Jose0:48:0229253268+343
15411ASTRADEBlandine0:48:1819993250+1251
11071POINSENOTRoger0:52:1928763001+125
3302JEANPIERREM-Therese0:52:3031282990-138
2446RIFFARDM-Lucie0:52:5026112971+360
2445RIFFARDJ-Claude0:53:0932772954-323
2611AMIOTJacques0:53:1830122945-67
4389THIEBAULDGeorges0:54:0333642905-459
1380DIEUDONNEMadeleine0:54:4340252869-1156
2661PERDRIZETAnne0:55:0927972847+50
6489MERATCatherine0:55:1602841N/A
1443BEGUINOTJacques0:55:4523592816+457
701ABISSEGisele0:56:1233702793-577
15324ETIENNEBernadette0:56:3924582771+313
4671POGUPaulette0:56:5227972761-36
14245RICHARDNicole0:57:2031132738-375
2888MOULIEREM-Bernadett0:58:3031522684-468
2674GUETINMichel0:58:5825632662+99
352MULLERRaymond0:59:0525842657+73
22697MATHEYChristophe1:00:11N/A2609N/A
2680KIEFFERMireille1:01:0827852568-217
2557VOGTChristiane1:02:2836492513-1136
23315JEANNERETChristelle1:04:59N/A2416N/A
11384GONNEAUDAgnes1:05:1824342404-30
23028FAVIEREric1:08:15N/A2300N/A
1674FINOBeatrice1:08:5319942279+285
931SIMONETMarie1:09:0722562271+15
117PIGERGhislaine1:09:33N/A2257N/A
12377DENISMartine1:09:5529452245-700
368VESCOVOOdile1:10:0616492239+590
2270VALETTEIsabelle1:10:5322052215+10
2413ROLLETM-Madeleine1:11:0526032209-394
4490THIEBAULTM-Paule1:11:3219292195+266
295PEETERSSimone1:12:4828312156-675
7574OUDINM-Reine1:13:2939202136-1784
15894LUDEWIG-JAMESCarol1:14:0821282118-10
2511ASTClaudine1:16:03N/A2064N/A
16687MERIGUETValerie1:18:1014302008+578
2182PROSTGisele1:25:4928271829-998
8286REBETA-Marie1:26:0501824N/A
1444BEGUINOTM-Louise1:26:4412511810+559
3185PASCAUDClaire1:27:4922851788-497
4392DODINGenevieve1:28:4721241768-356
3598LAZAROWICZR-Marie1:31:3116441715+71
6980BIGOTYvette1:32:5501690N/A
2547DESAINTJANClaude1:38:4527901590-1200
8954BASTIEN-FATHNicole1:39:3321941577-617
2546DESAINTJANAlice1:52:1022661400-866

  Indice de confiance du circuit (moyenne des différences entre CN et score sur la course des 3 à 10 premiers) : 149






 Retour